Weather History for Mt. Clemens, MI

Change the Weather History Date:

Friday, January 17, 2014

  Actual Average Record
Temperature  
Mean Temperature 27 °F -  
Max Temperature 33 °F 31 °F 62 °F (1952)
Min Temperature 21 °F 16 °F -9 °F (2009)
Degree Days  
Heating Degree Days 38    
Moisture  
Dew Point 23 °F    
Average Humidity 83    
Maximum Humidity 100    
Minimum Humidity 63    
Precipitation  
Precipitation 0.01 in - - ()
Snow  
Snow 0.00 in - - ()
Snow Depth 2.00 in    
Sea Level Pressure  
Sea Level Pressure 29.72 in    
Wind  
Wind Speed 10 mph (SW)    
Max Wind Speed 15 mph    
Max Gust Speed 22 mph    
Visibility 9 miles    
Events Snow    
Averages and records for this station are not official NWS values.
T = Trace of Precipitation, MM = Missing Value Source: NWS Daily Summary

Daily Weather History Graph

Daily Weather History Graph

Search for Another Location

Airport:

Trip Planner

Search our weather history database for the weather conditions in past years. The results will help you decide how hot, cold, wet, or windy it might be!

Date:

Astronomy

Jan. 17, 2014 Rise Set
Actual Time 7:57 AM EST 5:25 PM EST
Civil Twilight 7:26 AM EST 5:56 PM EST
Nautical Twilight 6:51 AM EST 6:31 PM EST
Astronomical Twilight 6:18 AM EST 7:05 PM EST
Moon 7:14 PM EST (1/17) 8:21 AM EST (1/17)
Length of Visible Light 10h 30m
Length of Day
9h 28m
Full, 98% of the Moon is Illuminated
Jan 17
Full
Jan 24
Last Quarter
Jan 30
New
Feb 6
First Quarter
Feb 14
Full

Hourly Weather History & Observations

Time (EST) Temp. Windchill Dew Point Humidity Pressure Visibility Wind Dir Wind Speed Gust Speed Precip Events Conditions
12:02 AM 28.4 °F 18.5 °F 26.6 °F 93% 29.63 in 8.0 mi South 11.5 mph - N/A   Overcast
12:11 AM 28.4 °F 19.1 °F 26.6 °F 93% 29.62 in 10.0 mi South 10.4 mph - N/A   Overcast
12:26 AM 28.4 °F 19.1 °F 26.6 °F 93% 29.62 in 10.0 mi South 10.4 mph - N/A   Overcast
12:31 AM 28.4 °F 19.7 °F 26.6 °F 93% 29.62 in 8.0 mi South 9.2 mph - N/A   Overcast
12:36 AM 28.4 °F 18.5 °F 26.6 °F 93% 29.62 in 6.0 mi South 11.5 mph - N/A   Overcast
12:46 AM 28.4 °F 20.4 °F 26.6 °F 93% 29.62 in 7.0 mi South 8.1 mph - N/A   Overcast
12:58 AM 27.9 °F 19.1 °F 26.4 °F 94% 29.65 in 8.0 mi South 9.2 mph - 0.00 in   Overcast
12:59 AM 28.4 °F 19.1 °F 26.6 °F 93% 29.61 in 8.0 mi South 10.4 mph - N/A   Overcast
1:04 AM 28.4 °F 19.1 °F 26.6 °F 93% 29.61 in 10.0 mi South 10.4 mph - N/A   Overcast
1:14 AM 28.4 °F 20.4 °F 26.6 °F 93% 29.61 in 9.0 mi South 8.1 mph - N/A   Overcast
1:19 AM 28.4 °F 20.4 °F 26.6 °F 93% 29.61 in 9.0 mi South 8.1 mph - N/A   Overcast
1:29 AM 28.4 °F 19.7 °F 26.6 °F 93% 29.61 in 9.0 mi South 9.2 mph - N/A   Overcast
1:34 AM 28.4 °F 20.4 °F 26.6 °F 93% 29.61 in 10.0 mi South 8.1 mph - N/A   Overcast
1:58 AM 28.0 °F 20.0 °F 26.6 °F 94% 29.65 in 10.0 mi South 8.1 mph - 0.00 in   Overcast
2:10 AM 28.4 °F 20.4 °F 26.6 °F 93% 29.61 in 10.0 mi South 8.1 mph - N/A   Overcast
2:11 AM 28.4 °F 20.4 °F 26.6 °F 93% 29.61 in 10.0 mi South 8.1 mph - N/A   Overcast
2:12 AM 28.4 °F 20.4 °F 26.6 °F 93% 29.61 in 10.0 mi South 8.1 mph - N/A   Overcast
2:22 AM 28.4 °F 20.4 °F 26.6 °F 93% 29.61 in 9.0 mi South 8.1 mph - N/A   Overcast
2:27 AM 28.4 °F 19.7 °F 26.6 °F 93% 29.61 in 7.0 mi South 9.2 mph - N/A   Overcast
2:37 AM 28.4 °F 20.4 °F 26.6 °F 93% 29.61 in 7.0 mi South 8.1 mph - N/A   Overcast
2:47 AM 28.4 °F 20.4 °F 26.6 °F 93% 29.61 in 5.0 mi South 8.1 mph - N/A Snow Light Snow
2:58 AM 28.2 °F 21.0 °F 27.1 °F 96% 29.65 in 4.0 mi South 6.9 mph - 0.00 in Snow Light Snow
3:03 AM 28.4 °F 20.4 °F 26.6 °F 93% 29.61 in 5.0 mi South 8.1 mph - N/A Snow Light Snow
3:08 AM 28.4 °F 20.4 °F 28.4 °F 100% 29.61 in 7.0 mi SSW 8.1 mph - N/A Snow Light Snow
3:13 AM 28.4 °F 20.4 °F 26.6 °F 93% 29.61 in 8.0 mi SSW 8.1 mph - N/A Snow Light Snow
3:14 AM 28.4 °F 20.4 °F 26.6 °F 93% 29.61 in 9.0 mi SSW 8.1 mph - N/A   Overcast
3:15 AM 28.4 °F 19.7 °F 28.4 °F 100% 29.61 in 9.0 mi SSW 9.2 mph - N/A Snow Light Snow
3:30 AM 28.4 °F 18.0 °F 26.6 °F 93% 29.61 in 7.0 mi SSW 12.7 mph - N/A Snow Light Snow
3:42 AM 28.4 °F 18.0 °F 26.6 °F 93% 29.61 in 10.0 mi SW 12.7 mph - N/A   Overcast
3:43 AM 28.4 °F 18.0 °F 26.6 °F 93% 29.62 in 10.0 mi SSW 12.7 mph - N/A   Light Freezing Drizzle
3:54 AM 30.2 °F 20.2 °F 26.6 °F 86% 29.62 in 10.0 mi SSW 12.7 mph - N/A Snow Light Snow
3:58 AM 29.5 °F 18.8 °F 26.6 °F 89% 29.65 in 10.0 mi SSW 13.8 mph - 0.01 in Snow Light Snow
4:03 AM 30.2 °F 20.2 °F 26.6 °F 86% 29.62 in 10.0 mi SSW 12.7 mph - N/A   Overcast
4:04 AM 30.2 °F 20.2 °F 26.6 °F 86% 29.62 in 10.0 mi SSW 12.7 mph - N/A   Light Freezing Drizzle
4:33 AM 30.2 °F 20.8 °F 26.6 °F 86% 29.62 in 10.0 mi SSW 11.5 mph 20.7 mph N/A   Overcast
4:58 AM 29.8 °F 19.8 °F 26.2 °F 86% 29.66 in 10.0 mi SSW 12.7 mph - 0.00 in   Overcast
5:05 AM 30.2 °F 20.8 °F 26.6 °F 86% 29.63 in 10.0 mi SSW 11.5 mph - N/A   Overcast
5:10 AM 30.2 °F 21.3 °F 26.6 °F 86% 29.63 in 10.0 mi SW 10.4 mph - N/A   Overcast
5:20 AM 30.2 °F 20.8 °F 26.6 °F 86% 29.64 in 10.0 mi SW 11.5 mph - N/A   Overcast
5:45 AM 30.2 °F 21.3 °F 26.6 °F 86% 29.64 in 9.0 mi SW 10.4 mph - N/A Snow Light Snow
5:50 AM 30.2 °F 21.3 °F 24.8 °F 80% 29.64 in 10.0 mi SW 10.4 mph - N/A Snow Light Snow
5:58 AM 29.5 °F 21.1 °F 25.7 °F 86% 29.68 in 10.0 mi SW 9.2 mph - 0.00 in Snow Light Snow
6:13 AM 30.2 °F 20.8 °F 24.8 °F 80% 29.65 in 10.0 mi SW 11.5 mph - N/A Snow Light Snow
6:18 AM 30.2 °F 21.3 °F 24.8 °F 80% 29.66 in 10.0 mi SW 10.4 mph - N/A Snow Light Snow
6:33 AM 28.4 °F 18.0 °F 24.8 °F 86% 29.66 in 10.0 mi SW 12.7 mph - N/A Snow Light Snow
6:38 AM 28.4 °F 17.0 °F 24.8 °F 86% 29.67 in 10.0 mi WSW 15.0 mph - N/A Snow Light Snow
6:48 AM 28.4 °F 18.5 °F 24.8 °F 86% 29.67 in 10.0 mi SW 11.5 mph - N/A Snow Light Snow
6:55 AM 28.4 °F 17.0 °F 24.8 °F 86% 29.68 in 10.0 mi WSW 15.0 mph 19.6 mph N/A   Overcast
6:56 AM 28.4 °F 18.5 °F 24.8 °F 86% 29.68 in 10.0 mi WSW 11.5 mph 19.6 mph N/A   Light Freezing Drizzle
6:58 AM 29.1 °F 19.4 °F 24.3 °F 82% 29.71 in 10.0 mi WSW 11.5 mph 19.6 mph 0.00 in   Light Freezing Drizzle
7:03 AM 28.4 °F 18.0 °F 24.8 °F 86% 29.68 in 10.0 mi WSW 12.7 mph 21.9 mph N/A   Light Freezing Drizzle
7:28 AM 28.4 °F 18.0 °F 23.0 °F 80% 29.69 in 10.0 mi WSW 12.7 mph - N/A   Overcast
7:55 AM 28.6 °F 18.2 °F 22.3 °F 77% 29.74 in 10.0 mi WSW 12.7 mph - N/A   Overcast
8:01 AM 28.4 °F 17.5 °F 23.0 °F 80% 29.70 in 10.0 mi WSW 13.8 mph - N/A   Mostly Cloudy
8:55 AM 27.7 °F 18.8 °F 20.8 °F 75% 29.77 in 10.0 mi WSW 9.2 mph - N/A   Mostly Cloudy
9:55 AM 28.2 °F 19.5 °F 19.9 °F 71% 29.79 in 10.0 mi WSW 9.2 mph - N/A   Mostly Cloudy
10:55 AM 29.5 °F 21.8 °F 19.9 °F 68% 29.79 in 12.0 mi SW 8.1 mph - N/A   Overcast
11:31 AM 30.2 °F 21.9 °F 19.4 °F 64% 29.75 in 10.0 mi WSW 9.2 mph - N/A Snow Light Snow
11:49 AM 30.2 °F 21.9 °F 21.2 °F 69% 29.75 in 10.0 mi SW 9.2 mph - N/A   Mostly Cloudy
11:55 AM 30.9 °F 23.5 °F 20.8 °F 66% 29.80 in 10.0 mi SW 8.1 mph - N/A   Mostly Cloudy
12:55 PM 32.9 °F 28.5 °F 21.4 °F 63% 29.78 in 10.0 mi SSW 4.6 mph - N/A   Mostly Cloudy
1:56 PM 32.7 °F 26.4 °F 22.5 °F 66% 29.78 in 10.0 mi SSW 6.9 mph - N/A   Overcast
2:55 PM 33.1 °F 27.7 °F 22.3 °F 65% 29.78 in 10.0 mi WSW 5.8 mph - N/A   Mostly Cloudy
3:55 PM 32.0 °F 28.7 °F 22.5 °F 68% 29.80 in 10.0 mi Variable 3.5 mph - N/A   Mostly Cloudy
3:59 PM 32.0 °F 28.7 °F 21.2 °F 64% 29.75 in 10.0 mi West 3.5 mph - N/A   Mostly Cloudy
4:17 PM 32.0 °F - 23.0 °F 69% 29.76 in 10.0 mi Variable 1.2 mph - N/A   Mostly Cloudy
4:24 PM 30.2 °F 25.4 °F 23.0 °F 75% 29.76 in 10.0 mi South 4.6 mph - N/A   Mostly Cloudy
4:42 PM 28.4 °F 20.4 °F 23.0 °F 80% 29.77 in 10.0 mi South 8.1 mph - N/A   Mostly Cloudy
4:55 PM 28.0 °F 20.8 °F 22.5 °F 80% 29.81 in 10.0 mi SSE 6.9 mph - N/A   Mostly Cloudy
5:55 PM 29.7 °F 21.3 °F 20.5 °F 69% 29.83 in 12.0 mi WNW 9.2 mph - N/A   Mostly Cloudy
6:55 PM 28.0 °F 21.7 °F 20.8 °F 74% 29.85 in 12.0 mi WNW 5.8 mph - N/A   Overcast
7:37 PM 26.6 °F 16.8 °F 19.4 °F 74% 29.82 in 10.0 mi WNW 10.4 mph - N/A Snow Light Snow
7:55 PM 26.8 °F 17.1 °F 19.6 °F 74% 29.87 in 10.0 mi West 10.4 mph - N/A Snow Light Snow
8:01 PM 26.6 °F 16.2 °F 19.4 °F 74% 29.83 in 5.0 mi West 11.5 mph - N/A Snow Light Snow
8:13 PM 24.8 °F 14.6 °F 19.4 °F 80% 29.83 in 5.0 mi WNW 10.4 mph - N/A Snow Light Snow
8:18 PM 24.8 °F 15.3 °F 19.4 °F 80% 29.84 in 8.0 mi West 9.2 mph - N/A Snow Light Snow
8:28 PM 24.8 °F 14.0 °F 19.4 °F 80% 29.84 in 9.0 mi West 11.5 mph - N/A Snow Light Snow
8:38 PM 24.8 °F 14.6 °F 19.4 °F 80% 29.84 in 6.0 mi West 10.4 mph - N/A Snow Light Snow
8:53 PM 24.8 °F 16.9 °F 19.4 °F 80% 29.84 in 7.0 mi West 6.9 mph - N/A Snow Light Snow
8:58 PM 24.6 °F 16.7 °F 20.1 °F 83% 29.88 in 7.0 mi West 6.9 mph - 0.00 in Snow Light Snow
9:08 PM 24.8 °F 16.1 °F 19.4 °F 80% 29.84 in 5.0 mi West 8.1 mph - N/A Snow Light Snow
9:13 PM 24.8 °F 16.9 °F 19.4 °F 80% 29.84 in 4.0 mi West 6.9 mph - N/A Snow Light Snow
9:48 PM 23.0 °F 12.4 °F 19.4 °F 86% 29.84 in 3.0 mi West 10.4 mph - N/A Snow Light Snow
9:53 PM 23.0 °F 12.4 °F 19.4 °F 86% 29.84 in 4.0 mi West 10.4 mph - N/A Snow Light Snow
9:58 PM 23.4 °F 12.2 °F 18.5 °F 82% 29.88 in 6.0 mi West 11.5 mph - 0.00 in Snow Light Snow
10:08 PM 23.0 °F 11.1 °F 17.6 °F 80% 29.85 in 10.0 mi West 12.7 mph - N/A Snow Light Snow
10:13 PM 23.0 °F 11.7 °F 17.6 °F 80% 29.84 in 10.0 mi West 11.5 mph - N/A Snow Light Snow
10:23 PM 23.0 °F 13.1 °F 17.6 °F 80% 29.85 in 10.0 mi West 9.2 mph - N/A Snow Light Snow
10:36 PM 23.0 °F 14.7 °F 17.6 °F 80% 29.85 in 10.0 mi West 6.9 mph - N/A   Overcast
10:37 PM 23.0 °F 14.7 °F 17.6 °F 80% 29.86 in 10.0 mi West 6.9 mph - N/A   Light Freezing Drizzle
10:58 PM 22.5 °F 14.1 °F 16.7 °F 79% 29.90 in 10.0 mi West 6.9 mph - 0.00 in   Light Freezing Drizzle
11:06 PM 23.0 °F 13.9 °F 15.8 °F 74% 29.86 in 10.0 mi West 8.1 mph - N/A   Overcast
11:09 PM 23.0 °F 13.1 °F 17.6 °F 80% 29.86 in 10.0 mi West 9.2 mph - N/A Snow Light Snow
11:24 PM 23.0 °F 12.4 °F 15.8 °F 74% 29.86 in 9.0 mi West 10.4 mph - N/A Snow Light Snow
11:34 PM 23.0 °F 13.9 °F 15.8 °F 74% 29.86 in 6.0 mi West 8.1 mph - N/A Snow Light Snow
11:44 PM 21.2 °F 11.7 °F 17.6 °F 86% 29.86 in 7.0 mi West 8.1 mph - N/A Snow Light Snow
11:49 PM 21.2 °F 9.5 °F 17.6 °F 86% 29.86 in 8.0 mi West 11.5 mph - N/A Snow Light Snow
11:58 PM 21.9 °F 11.7 °F 16.2 °F 78% 29.90 in 9.0 mi West 9.2 mph - 0.00 in Snow Light Snow